owner,sensor,date,latitude,longitude,vertical_datum,wind_speed,wind_to_direction,wind_speed_of_gust,qcFlag 
WAVCIS,ioos:station:WAVCIS:CSI15:1,2010-12-01T00:00:00Z,28.8332,-90.8320,10.0,14.06,295.0,,'11111222,11111222,99999999' 
WAVCIS,ioos:station:WAVCIS:CSI15:1,2010-12-01T01:00:00Z,28.8332,-90.8320,10.0,14.23,302.0,,'11111222,11111222,99999999' 
WAVCIS,ioos:station:WAVCIS:CSI15:1,2010-12-01T02:00:00Z,28.8332,-90.8320,10.0,15.02,300.0,,'11111222,11111222,99999999' 
WAVCIS,ioos:station:WAVCIS:CSI15:1,2010-12-01T03:00:00Z,28.8332,-90.8320,10.0,15.45,304.0,,'11111222,11111222,99999999' 
WAVCIS,ioos:station:WAVCIS:CSI15:1,2010-12-01T04:00:00Z,28.8332,-90.8320,10.0,16.15,306.0,,'11111222,11111222,99999999' 
WAVCIS,ioos:station:WAVCIS:CSI15:1,2010-12-01T05:00:00Z,28.8332,-90.8320,10.0,15.07,315.0,,'11111222,11111222,99999999' 
WAVCIS,ioos:station:WAVCIS:CSI15:1,2010-12-01T06:00:00Z,28.8332,-90.8320,10.0,15.3,314.0,,'11111222,11111222,99999999' 
WAVCIS,ioos:station:WAVCIS:CSI15:1,2010-12-01T07:00:00Z,28.8332,-90.8320,10.0,13.65,324.0,,'11111222,11111222,99999999' 
WAVCIS,ioos:station:WAVCIS:CSI15:1,2010-12-01T08:00:00Z,28.8332,-90.8320,10.0,14.27,315.0,,'11111222,11111222,99999999' 
WAVCIS,ioos:station:WAVCIS:CSI15:1,2010-12-01T09:00:00Z,28.8332,-90.8320,10.0,14.2,318.0,,'11111222,11111222,99999999' 
WAVCIS,ioos:station:WAVCIS:CSI15:1,2010-12-01T10:00:00Z,28.8332,-90.8320,10.0,13.6,324.0,,'11111222,11111222,99999999' 
WAVCIS,ioos:station:WAVCIS:CSI15:1,2010-12-01T11:00:00Z,28.8332,-90.8320,10.0,12.83,331.0,,'11111222,11111222,99999999' 
WAVCIS,ioos:station:WAVCIS:CSI15:1,2010-12-01T12:00:00Z,28.8332,-90.8320,10.0,12.93,335.0,,'11111222,11111222,99999999' 
WAVCIS,ioos:station:WAVCIS:CSI15:1,2010-12-01T13:00:00Z,28.8332,-90.8320,10.0,11.59,342.0,,'11111222,11111222,99999999' 
WAVCIS,ioos:station:WAVCIS:CSI15:1,2010-12-01T14:00:00Z,28.8332,-90.8320,10.0,10.35,351.0,,'11111222,11111222,99999999' 
WAVCIS,ioos:station:WAVCIS:CSI15:1,2010-12-01T15:00:00Z,28.8332,-90.8320,10.0,8.32,357.0,,'11111222,11111222,99999999' 
WAVCIS,ioos:station:WAVCIS:CSI15:1,2010-12-01T16:00:00Z,28.8332,-90.8320,10.0,6.503,359.0,,'11111222,11111222,99999999' 
WAVCIS,ioos:station:WAVCIS:CSI15:1,2010-12-01T17:00:00Z,28.8332,-90.8320,10.0,5.693,7.0,,'11111222,11111222,99999999' 
WAVCIS,ioos:station:WAVCIS:CSI15:1,2010-12-01T18:00:00Z,28.8332,-90.8320,10.0,5.524,10.0,,'11111222,11111222,99999999' 
WAVCIS,ioos:station:WAVCIS:CSI15:1,2010-12-01T19:00:00Z,28.8332,-90.8320,10.0,4.162,24.0,,'11111222,11111222,99999999' 
WAVCIS,ioos:station:WAVCIS:CSI15:1,2010-12-01T20:00:00Z,28.8332,-90.8320,10.0,3.732,26.0,,'11111222,11111222,99999999' 
WAVCIS,ioos:station:WAVCIS:CSI15:1,2010-12-01T21:00:00Z,28.8332,-90.8320,10.0,2.846,5.0,,'11111222,11111222,99999999' 
WAVCIS,ioos:station:WAVCIS:CSI15:1,2010-12-01T22:00:00Z,28.8332,-90.8320,10.0,1.162,291.0,,'11111222,11111222,99999999' 
WAVCIS,ioos:station:WAVCIS:CSI15:1,2010-12-01T23:00:00Z,28.8332,-90.8320,10.0,1.337,255.0,,'11111222,11111222,99999999' 
WAVCIS,ioos:station:WAVCIS:CSI15:1,2010-12-02T00:00:00Z,28.8332,-90.8320,10.0,1.218,271.0,,'11111222,11111222,99999999' 
WAVCIS,ioos:station:WAVCIS:CSI15:1,2010-12-02T01:00:00Z,28.8332,-90.8320,10.0,2.233,264.0,,'11111222,11111222,99999999' 
WAVCIS,ioos:station:WAVCIS:CSI15:1,2010-12-02T02:00:00Z,28.8332,-90.8320,10.0,1.968,256.0,,'11111222,11111222,99999999' 
WAVCIS,ioos:station:WAVCIS:CSI15:1,2010-12-02T03:00:00Z,28.8332,-90.8320,10.0,1.98,290.0,,'11111222,11111222,99999999' 
WAVCIS,ioos:station:WAVCIS:CSI15:1,2010-12-02T04:00:00Z,28.8332,-90.8320,10.0,1.216,279.0,,'11111222,11111222,99999999' 
WAVCIS,ioos:station:WAVCIS:CSI15:1,2010-12-02T05:00:00Z,28.8332,-90.8320,10.0,1.256,323.0,,'11111222,11111222,99999999' 
WAVCIS,ioos:station:WAVCIS:CSI15:1,2010-12-02T06:00:00Z,28.8332,-90.8320,10.0,1.341,324.0,,'11111222,11111222,99999999' 
WAVCIS,ioos:station:WAVCIS:CSI15:1,2010-12-02T07:00:00Z,28.8332,-90.8320,10.0,1.059,305.0,,'11111222,11111222,99999999' 
WAVCIS,ioos:station:WAVCIS:CSI15:1,2010-12-02T08:00:00Z,28.8332,-90.8320,10.0,1.858,314.0,,'11111222,11111222,99999999' 
WAVCIS,ioos:station:WAVCIS:CSI15:1,2010-12-02T09:00:00Z,28.8332,-90.8320,10.0,1.685,342.0,,'11111222,11111222,99999999' 
WAVCIS,ioos:station:WAVCIS:CSI15:1,2010-12-02T10:00:00Z,28.8332,-90.8320,10.0,2.134,342.0,,'11111222,11111222,99999999' 
WAVCIS,ioos:station:WAVCIS:CSI15:1,2010-12-02T11:00:00Z,28.8332,-90.8320,10.0,2.224,324.0,,'11111222,11111222,99999999' 
WAVCIS,ioos:station:WAVCIS:CSI15:1,2010-12-02T12:00:00Z,28.8332,-90.8320,10.0,3.279,326.0,,'11111222,11111222,99999999' 
WAVCIS,ioos:station:WAVCIS:CSI15:1,2010-12-02T13:00:00Z,28.8332,-90.8320,10.0,1.535,313.0,,'11111222,11111222,99999999' 
WAVCIS,ioos:station:WAVCIS:CSI15:1,2010-12-02T14:00:00Z,28.8332,-90.8320,10.0,1.792,332.0,,'11111222,11111222,99999999' 
WAVCIS,ioos:station:WAVCIS:CSI15:1,2010-12-02T15:00:00Z,28.8332,-90.8320,10.0,2.28,0.0,,'11111222,11111222,99999999' 
WAVCIS,ioos:station:WAVCIS:CSI15:1,2010-12-02T16:00:00Z,28.8332,-90.8320,10.0,2.643,356.0,,'11111222,11111222,99999999' 
WAVCIS,ioos:station:WAVCIS:CSI15:1,2010-12-02T17:00:00Z,28.8332,-90.8320,10.0,3.628,1.0,,'11111222,11111222,99999999' 
WAVCIS,ioos:station:WAVCIS:CSI15:1,2010-12-02T18:00:00Z,28.8332,-90.8320,10.0,2.403,21.0,,'11111222,11111222,99999999' 
WAVCIS,ioos:station:WAVCIS:CSI15:1,2010-12-02T19:00:00Z,28.8332,-90.8320,10.0,2.908,11.0,,'11111222,11111222,99999999' 
WAVCIS,ioos:station:WAVCIS:CSI15:1,2010-12-02T20:00:00Z,28.8332,-90.8320,10.0,2.663,24.0,,'11111222,11111222,99999999' 
WAVCIS,ioos:station:WAVCIS:CSI15:1,2010-12-02T21:00:00Z,28.8332,-90.8320,10.0,2.368,56.0,,'11111222,11111222,99999999' 
WAVCIS,ioos:station:WAVCIS:CSI15:1,2010-12-02T22:00:00Z,28.8332,-90.8320,10.0,2.082,28.0,,'11111222,11111222,99999999' 
WAVCIS,ioos:station:WAVCIS:CSI15:1,2010-12-02T23:00:00Z,28.8332,-90.8320,10.0,2.163,72.0,,'11111222,11111222,99999999' 
WAVCIS,ioos:station:WAVCIS:CSI15:1,2010-12-03T00:00:00Z,28.8332,-90.8320,10.0,3.019,109.0,,'11111222,11111222,99999999' 
WAVCIS,ioos:station:WAVCIS:CSI15:1,2010-12-03T01:00:00Z,28.8332,-90.8320,10.0,3.399,112.0,,'11111222,11111222,99999999' 
WAVCIS,ioos:station:WAVCIS:CSI15:1,2010-12-03T02:00:00Z,28.8332,-90.8320,10.0,2.803,132.0,,'11111222,11111222,99999999' 
WAVCIS,ioos:station:WAVCIS:CSI15:1,2010-12-03T03:00:00Z,28.8332,-90.8320,10.0,2.8,142.0,,'11111222,11111222,99999999' 
WAVCIS,ioos:station:WAVCIS:CSI15:1,2010-12-03T04:00:00Z,28.8332,-90.8320,10.0,2.931,146.0,,'11111222,11111222,99999999' 
WAVCIS,ioos:station:WAVCIS:CSI15:1,2010-12-03T05:00:00Z,28.8332,-90.8320,10.0,3.198,169.0,,'11111222,11111222,99999999' 
WAVCIS,ioos:station:WAVCIS:CSI15:1,2010-12-03T06:00:00Z,28.8332,-90.8320,10.0,1.479,137.0,,'11111222,11111222,99999999' 
WAVCIS,ioos:station:WAVCIS:CSI15:1,2010-12-03T07:00:00Z,28.8332,-90.8320,10.0,1.053,140.0,,'11111222,11111222,99999999' 
WAVCIS,ioos:station:WAVCIS:CSI15:1,2010-12-03T08:00:00Z,28.8332,-90.8320,10.0,2.29,165.0,,'11111222,11111222,99999999' 
WAVCIS,ioos:station:WAVCIS:CSI15:1,2010-12-03T09:00:00Z,28.8332,-90.8320,10.0,2.503,188.0,,'11111222,11111222,99999999' 
WAVCIS,ioos:station:WAVCIS:CSI15:1,2010-12-03T10:00:00Z,28.8332,-90.8320,10.0,1.874,178.0,,'11111222,11111222,99999999' 
WAVCIS,ioos:station:WAVCIS:CSI15:1,2010-12-03T11:00:00Z,28.8332,-90.8320,10.0,1.799,139.0,,'11111222,11111222,99999999' 
WAVCIS,ioos:station:WAVCIS:CSI15:1,2010-12-03T12:00:00Z,28.8332,-90.8320,10.0,2.008,150.0,,'11111222,11111222,99999999' 
WAVCIS,ioos:station:WAVCIS:CSI15:1,2010-12-03T13:00:00Z,28.8332,-90.8320,10.0,2.146,138.0,,'11111222,11111222,99999999' 
WAVCIS,ioos:station:WAVCIS:CSI15:1,2010-12-03T14:00:00Z,28.8332,-90.8320,10.0,2.27,128.0,,'11111222,11111222,99999999' 
WAVCIS,ioos:station:WAVCIS:CSI15:1,2010-12-03T15:00:00Z,28.8332,-90.8320,10.0,3.204,148.0,,'11111222,11111222,99999999' 
WAVCIS,ioos:station:WAVCIS:CSI15:1,2010-12-03T16:00:00Z,28.8332,-90.8320,10.0,3.355,145.0,,'11111222,11111222,99999999' 
WAVCIS,ioos:station:WAVCIS:CSI15:1,2010-12-03T17:00:00Z,28.8332,-90.8320,10.0,3.014,141.0,,'11111222,11111222,99999999' 
WAVCIS,ioos:station:WAVCIS:CSI15:1,2010-12-03T18:00:00Z,28.8332,-90.8320,10.0,2.802,148.0,,'11111222,11111222,99999999' 
WAVCIS,ioos:station:WAVCIS:CSI15:1,2010-12-03T19:00:00Z,28.8332,-90.8320,10.0,3.084,163.0,,'11111222,11111222,99999999' 
WAVCIS,ioos:station:WAVCIS:CSI15:1,2010-12-03T20:00:00Z,28.8332,-90.8320,10.0,2.907,169.0,,'11111222,11111222,99999999' 
WAVCIS,ioos:station:WAVCIS:CSI15:1,2010-12-03T21:00:00Z,28.8332,-90.8320,10.0,2.987,169.0,,'11111222,11111222,99999999' 
WAVCIS,ioos:station:WAVCIS:CSI15:1,2010-12-03T22:00:00Z,28.8332,-90.8320,10.0,2.781,161.0,,'11111222,11111222,99999999' 
WAVCIS,ioos:station:WAVCIS:CSI15:1,2010-12-03T23:00:00Z,28.8332,-90.8320,10.0,3.37,167.0,,'11111222,11111222,99999999' 
WAVCIS,ioos:station:WAVCIS:CSI15:1,2010-12-04T00:00:00Z,28.8332,-90.8320,10.0,3.918,170.0,,'11111222,11111222,99999999' 
WAVCIS,ioos:station:WAVCIS:CSI15:1,2010-12-04T01:00:00Z,28.8332,-90.8320,10.0,4.498,158.0,,'11111222,11111222,99999999' 
WAVCIS,ioos:station:WAVCIS:CSI15:1,2010-12-04T02:00:00Z,28.8332,-90.8320,10.0,5.571,155.0,,'11111222,11111222,99999999' 
WAVCIS,ioos:station:WAVCIS:CSI15:1,2010-12-04T03:00:00Z,28.8332,-90.8320,10.0,5.846,157.0,,'11111222,11111222,99999999' 
WAVCIS,ioos:station:WAVCIS:CSI15:1,2010-12-04T04:00:00Z,28.8332,-90.8320,10.0,6.755,156.0,,'11111222,11111222,99999999' 
WAVCIS,ioos:station:WAVCIS:CSI15:1,2010-12-04T05:00:00Z,28.8332,-90.8320,10.0,7.33,158.0,,'11111222,11111222,99999999' 
WAVCIS,ioos:station:WAVCIS:CSI15:1,2010-12-04T06:00:00Z,28.8332,-90.8320,10.0,6.798,182.0,,'11111222,11111222,99999999' 
WAVCIS,ioos:station:WAVCIS:CSI15:1,2010-12-04T07:00:00Z,28.8332,-90.8320,10.0,6.771,191.0,,'11111222,11111222,99999999' 
WAVCIS,ioos:station:WAVCIS:CSI15:1,2010-12-04T08:00:00Z,28.8332,-90.8320,10.0,8.07,184.0,,'11111222,11111222,99999999' 
WAVCIS,ioos:station:WAVCIS:CSI15:1,2010-12-04T09:00:00Z,28.8332,-90.8320,10.0,8.24,175.0,,'11111222,11111222,99999999' 
WAVCIS,ioos:station:WAVCIS:CSI15:1,2010-12-04T10:00:00Z,28.8332,-90.8320,10.0,7.14,175.0,,'11111222,11111222,99999999' 
WAVCIS,ioos:station:WAVCIS:CSI15:1,2010-12-04T11:00:00Z,28.8332,-90.8320,10.0,6.522,183.0,,'11111222,11111222,99999999' 
WAVCIS,ioos:station:WAVCIS:CSI15:1,2010-12-04T12:00:00Z,28.8332,-90.8320,10.0,6.382,170.0,,'11111222,11111222,99999999' 
WAVCIS,ioos:station:WAVCIS:CSI15:1,2010-12-04T13:00:00Z,28.8332,-90.8320,10.0,4.421,205.0,,'11111222,11111222,99999999' 
WAVCIS,ioos:station:WAVCIS:CSI15:1,2010-12-04T14:00:00Z,28.8332,-90.8320,10.0,4.173,200.0,,'11111222,11111222,99999999' 
WAVCIS,ioos:station:WAVCIS:CSI15:1,2010-12-04T15:00:00Z,28.8332,-90.8320,10.0,4.65,201.0,,'11111222,11111222,99999999' 
WAVCIS,ioos:station:WAVCIS:CSI15:1,2010-12-04T16:00:00Z,28.8332,-90.8320,10.0,5.085,196.0,,'11111222,11111222,99999999' 
WAVCIS,ioos:station:WAVCIS:CSI15:1,2010-12-04T17:00:00Z,28.8332,-90.8320,10.0,4.518,186.0,,'11111222,11111222,99999999' 
WAVCIS,ioos:station:WAVCIS:CSI15:1,2010-12-04T18:00:00Z,28.8332,-90.8320,10.0,5.5,188.0,,'11111222,11111222,99999999' 
WAVCIS,ioos:station:WAVCIS:CSI15:1,2010-12-04T19:00:00Z,28.8332,-90.8320,10.0,5.003,195.0,,'11111222,11111222,99999999' 
WAVCIS,ioos:station:WAVCIS:CSI15:1,2010-12-04T20:00:00Z,28.8332,-90.8320,10.0,5.208,202.0,,'11111222,11111222,99999999' 
WAVCIS,ioos:station:WAVCIS:CSI15:1,2010-12-04T21:00:00Z,28.8332,-90.8320,10.0,5.27,208.0,,'11111222,11111222,99999999' 
WAVCIS,ioos:station:WAVCIS:CSI15:1,2010-12-04T22:00:00Z,28.8332,-90.8320,10.0,4.219,233.0,,'11111222,11111222,99999999' 
WAVCIS,ioos:station:WAVCIS:CSI15:1,2010-12-04T23:00:00Z,28.8332,-90.8320,10.0,4.584,262.0,,'11111222,11111222,99999999' 
WAVCIS,ioos:station:WAVCIS:CSI15:1,2010-12-05T00:00:00Z,28.8332,-90.8320,10.0,4.191,252.0,,'11111222,11111222,99999999' 
WAVCIS,ioos:station:WAVCIS:CSI15:1,2010-12-05T01:00:00Z,28.8332,-90.8320,10.0,3.867,243.0,,'11111222,11111222,99999999' 
WAVCIS,ioos:station:WAVCIS:CSI15:1,2010-12-05T02:00:00Z,28.8332,-90.8320,10.0,3.764,226.0,,'11111222,11111222,99999999' 
WAVCIS,ioos:station:WAVCIS:CSI15:1,2010-12-05T03:00:00Z,28.8332,-90.8320,10.0,4.508,220.0,,'11111222,11111222,99999999' 
WAVCIS,ioos:station:WAVCIS:CSI15:1,2010-12-05T04:00:00Z,28.8332,-90.8320,10.0,5.172,211.0,,'11111222,11111222,99999999' 
WAVCIS,ioos:station:WAVCIS:CSI15:1,2010-12-05T05:00:00Z,28.8332,-90.8320,10.0,4.913,218.0,,'11111222,11111222,99999999' 
WAVCIS,ioos:station:WAVCIS:CSI15:1,2010-12-05T06:00:00Z,28.8332,-90.8320,10.0,5.777,216.0,,'11111222,11111222,99999999' 
WAVCIS,ioos:station:WAVCIS:CSI15:1,2010-12-05T07:00:00Z,28.8332,-90.8320,10.0,5.627,227.0,,'11111222,11111222,99999999' 
WAVCIS,ioos:station:WAVCIS:CSI15:1,2010-12-05T08:00:00Z,28.8332,-90.8320,10.0,6.491,237.0,,'11111222,11111222,99999999' 
WAVCIS,ioos:station:WAVCIS:CSI15:1,2010-12-05T09:00:00Z,28.8332,-90.8320,10.0,7.07,310.0,,'11111222,11111222,99999999' 
WAVCIS,ioos:station:WAVCIS:CSI15:1,2010-12-05T10:00:00Z,28.8332,-90.8320,10.0,7.3,339.0,,'11111222,11111222,99999999' 
WAVCIS,ioos:station:WAVCIS:CSI15:1,2010-12-05T11:00:00Z,28.8332,-90.8320,10.0,11.17,5.0,,'11111222,11111222,99999999' 
WAVCIS,ioos:station:WAVCIS:CSI15:1,2010-12-05T12:00:00Z,28.8332,-90.8320,10.0,11.57,359.0,,'11111222,11111222,99999999' 
WAVCIS,ioos:station:WAVCIS:CSI15:1,2010-12-05T13:00:00Z,28.8332,-90.8320,10.0,13.13,2.0,,'11111222,11111222,99999999' 
WAVCIS,ioos:station:WAVCIS:CSI15:1,2010-12-05T14:00:00Z,28.8332,-90.8320,10.0,10.97,357.0,,'11111222,11111222,99999999' 
WAVCIS,ioos:station:WAVCIS:CSI15:1,2010-12-05T15:00:00Z,28.8332,-90.8320,10.0,10.94,0.0,,'11111222,11111222,99999999' 
WAVCIS,ioos:station:WAVCIS:CSI15:1,2010-12-05T16:00:00Z,28.8332,-90.8320,10.0,10.45,3.0,,'11111222,11111222,99999999' 
WAVCIS,ioos:station:WAVCIS:CSI15:1,2010-12-05T17:00:00Z,28.8332,-90.8320,10.0,10.16,4.0,,'11111222,11111222,99999999' 
WAVCIS,ioos:station:WAVCIS:CSI15:1,2010-12-05T18:00:00Z,28.8332,-90.8320,10.0,10.83,1.0,,'11111222,11111222,99999999' 
WAVCIS,ioos:station:WAVCIS:CSI15:1,2010-12-05T19:00:00Z,28.8332,-90.8320,10.0,8.87,359.0,,'11111222,11111222,99999999' 
WAVCIS,ioos:station:WAVCIS:CSI15:1,2010-12-05T20:00:00Z,28.8332,-90.8320,10.0,7.93,353.0,,'11111222,11111222,99999999' 
WAVCIS,ioos:station:WAVCIS:CSI15:1,2010-12-05T21:00:00Z,28.8332,-90.8320,10.0,7.97,355.0,,'11111222,11111222,99999999' 
WAVCIS,ioos:station:WAVCIS:CSI15:1,2010-12-05T22:00:00Z,28.8332,-90.8320,10.0,8.66,355.0,,'11111222,11111222,99999999' 
WAVCIS,ioos:station:WAVCIS:CSI15:1,2010-12-05T23:00:00Z,28.8332,-90.8320,10.0,7.75,356.0,,'11111222,11111222,99999999' 
WAVCIS,ioos:station:WAVCIS:CSI15:1,2010-12-06T00:00:00Z,28.8332,-90.8320,10.0,8.73,357.0,,'11111222,11111222,99999999' 
WAVCIS,ioos:station:WAVCIS:CSI15:1,2010-12-06T01:00:00Z,28.8332,-90.8320,10.0,9.38,356.0,,'11111222,11111222,99999999' 
WAVCIS,ioos:station:WAVCIS:CSI15:1,2010-12-06T02:00:00Z,28.8332,-90.8320,10.0,10.81,354.0,,'11111222,11111222,99999999' 
WAVCIS,ioos:station:WAVCIS:CSI15:1,2010-12-06T03:00:00Z,28.8332,-90.8320,10.0,11.56,345.0,,'11111222,11111222,99999999' 
WAVCIS,ioos:station:WAVCIS:CSI15:1,2010-12-06T04:00:00Z,28.8332,-90.8320,10.0,11.7,357.0,,'11111222,11111222,99999999' 
WAVCIS,ioos:station:WAVCIS:CSI15:1,2010-12-06T05:00:00Z,28.8332,-90.8320,10.0,12.55,351.0,,'11111222,11111222,99999999' 
WAVCIS,ioos:station:WAVCIS:CSI15:1,2010-12-06T06:00:00Z,28.8332,-90.8320,10.0,12.03,359.0,,'11111222,11111222,99999999' 
WAVCIS,ioos:station:WAVCIS:CSI15:1,2010-12-06T07:00:00Z,28.8332,-90.8320,10.0,11.09,358.0,,'11111222,11111222,99999999' 
WAVCIS,ioos:station:WAVCIS:CSI15:1,2010-12-06T08:00:00Z,28.8332,-90.8320,10.0,11.13,0.0,,'11111222,11144222,99999999' 
WAVCIS,ioos:station:WAVCIS:CSI15:1,2010-12-06T09:00:00Z,28.8332,-90.8320,10.0,11.24,358.0,,'11111222,11111222,99999999' 
WAVCIS,ioos:station:WAVCIS:CSI15:1,2010-12-06T10:00:00Z,28.8332,-90.8320,10.0,11.79,357.0,,'11111222,11111222,99999999' 
WAVCIS,ioos:station:WAVCIS:CSI15:1,2010-12-06T11:00:00Z,28.8332,-90.8320,10.0,11.11,354.0,,'11111222,11111222,99999999' 
WAVCIS,ioos:station:WAVCIS:CSI15:1,2010-12-06T12:00:00Z,28.8332,-90.8320,10.0,10.85,354.0,,'11111222,11111222,99999999' 
WAVCIS,ioos:station:WAVCIS:CSI15:1,2010-12-06T13:00:00Z,28.8332,-90.8320,10.0,9.76,0.0,,'11111222,11111222,99999999' 
WAVCIS,ioos:station:WAVCIS:CSI15:1,2010-12-06T14:00:00Z,28.8332,-90.8320,10.0,10.2,359.0,,'11111222,11111222,99999999' 
WAVCIS,ioos:station:WAVCIS:CSI15:1,2010-12-06T15:00:00Z,28.8332,-90.8320,10.0,9.72,358.0,,'11111222,11111222,99999999' 
WAVCIS,ioos:station:WAVCIS:CSI15:1,2010-12-06T16:00:00Z,28.8332,-90.8320,10.0,9.57,352.0,,'11111222,11111222,99999999' 
WAVCIS,ioos:station:WAVCIS:CSI15:1,2010-12-06T17:00:00Z,28.8332,-90.8320,10.0,7.51,357.0,,'11111222,11111222,99999999' 
WAVCIS,ioos:station:WAVCIS:CSI15:1,2010-12-06T18:00:00Z,28.8332,-90.8320,10.0,6.846,347.0,,'11111222,11111222,99999999' 
WAVCIS,ioos:station:WAVCIS:CSI15:1,2010-12-06T19:00:00Z,28.8332,-90.8320,10.0,6.934,343.0,,'11111222,11111222,99999999' 
WAVCIS,ioos:station:WAVCIS:CSI15:1,2010-12-06T20:00:00Z,28.8332,-90.8320,10.0,6.144,327.0,,'11111222,11111222,99999999' 
WAVCIS,ioos:station:WAVCIS:CSI15:1,2010-12-06T21:00:00Z,28.8332,-90.8320,10.0,5.241,314.0,,'11111222,11111222,99999999' 
WAVCIS,ioos:station:WAVCIS:CSI15:1,2010-12-06T22:00:00Z,28.8332,-90.8320,10.0,5.601,306.0,,'11111222,11111222,99999999' 
WAVCIS,ioos:station:WAVCIS:CSI15:1,2010-12-06T23:00:00Z,28.8332,-90.8320,10.0,7.29,322.0,,'11111222,11111222,99999999' 
WAVCIS,ioos:station:WAVCIS:CSI15:1,2010-12-07T00:00:00Z,28.8332,-90.8320,10.0,8.48,326.0,,'11111222,11111222,99999999' 
WAVCIS,ioos:station:WAVCIS:CSI15:1,2010-12-07T01:00:00Z,28.8332,-90.8320,10.0,8.64,311.0,,'11111222,11111222,99999999' 
WAVCIS,ioos:station:WAVCIS:CSI15:1,2010-12-07T02:00:00Z,28.8332,-90.8320,10.0,6.961,323.0,,'11111222,11111222,99999999' 
WAVCIS,ioos:station:WAVCIS:CSI15:1,2010-12-07T03:00:00Z,28.8332,-90.8320,10.0,7.55,331.0,,'11111222,11111222,99999999' 
WAVCIS,ioos:station:WAVCIS:CSI15:1,2010-12-07T04:00:00Z,28.8332,-90.8320,10.0,8.7,330.0,,'11111222,11111222,99999999' 
WAVCIS,ioos:station:WAVCIS:CSI15:1,2010-12-07T05:00:00Z,28.8332,-90.8320,10.0,9.62,335.0,,'11111222,11111222,99999999' 
WAVCIS,ioos:station:WAVCIS:CSI15:1,2010-12-07T06:00:00Z,28.8332,-90.8320,10.0,9.3,337.0,,'11111222,11111222,99999999' 
WAVCIS,ioos:station:WAVCIS:CSI15:1,2010-12-07T07:00:00Z,28.8332,-90.8320,10.0,8.98,340.0,,'11111222,11111222,99999999' 
WAVCIS,ioos:station:WAVCIS:CSI15:1,2010-12-07T08:00:00Z,28.8332,-90.8320,10.0,8.2,348.0,,'11111222,11111222,99999999' 
WAVCIS,ioos:station:WAVCIS:CSI15:1,2010-12-07T09:00:00Z,28.8332,-90.8320,10.0,7.86,347.0,,'11111222,11111222,99999999' 
WAVCIS,ioos:station:WAVCIS:CSI15:1,2010-12-07T10:00:00Z,28.8332,-90.8320,10.0,8.73,356.0,,'11111222,11111222,99999999' 
WAVCIS,ioos:station:WAVCIS:CSI15:1,2010-12-07T11:00:00Z,28.8332,-90.8320,10.0,8.71,355.0,,'11111222,11111222,99999999' 
WAVCIS,ioos:station:WAVCIS:CSI15:1,2010-12-07T12:00:00Z,28.8332,-90.8320,10.0,8.06,357.0,,'11111222,11111222,99999999' 
WAVCIS,ioos:station:WAVCIS:CSI15:1,2010-12-07T13:00:00Z,28.8332,-90.8320,10.0,6.738,0.0,,'11111222,11111222,99999999' 
WAVCIS,ioos:station:WAVCIS:CSI15:1,2010-12-07T14:00:00Z,28.8332,-90.8320,10.0,6.791,5.0,,'11111222,11111222,99999999' 
WAVCIS,ioos:station:WAVCIS:CSI15:1,2010-12-07T15:00:00Z,28.8332,-90.8320,10.0,5.906,16.0,,'11111222,11111222,99999999' 
WAVCIS,ioos:station:WAVCIS:CSI15:1,2010-12-07T16:00:00Z,28.8332,-90.8320,10.0,5.374,25.0,,'11111222,11111222,99999999' 
WAVCIS,ioos:station:WAVCIS:CSI15:1,2010-12-07T17:00:00Z,28.8332,-90.8320,10.0,5.662,36.0,,'11111222,11111222,99999999' 
WAVCIS,ioos:station:WAVCIS:CSI15:1,2010-12-07T18:00:00Z,28.8332,-90.8320,10.0,4.947,35.0,,'11111222,11111222,99999999' 
WAVCIS,ioos:station:WAVCIS:CSI15:1,2010-12-07T19:00:00Z,28.8332,-90.8320,10.0,3.74,42.0,,'11111222,11111222,99999999' 
WAVCIS,ioos:station:WAVCIS:CSI15:1,2010-12-07T20:00:00Z,28.8332,-90.8320,10.0,2.737,32.0,,'11111222,11111222,99999999' 
WAVCIS,ioos:station:WAVCIS:CSI15:1,2010-12-07T21:00:00Z,28.8332,-90.8320,10.0,2.643,35.0,,'11111222,11111222,99999999' 
WAVCIS,ioos:station:WAVCIS:CSI15:1,2010-12-07T22:00:00Z,28.8332,-90.8320,10.0,1.881,4.0,,'11111222,11111222,99999999' 
WAVCIS,ioos:station:WAVCIS:CSI15:1,2010-12-07T23:00:00Z,28.8332,-90.8320,10.0,3.03,26.0,,'11111222,11111222,99999999' 
WAVCIS,ioos:station:WAVCIS:CSI15:1,2010-12-08T00:00:00Z,28.8332,-90.8320,10.0,1.964,61.0,,'11111222,11111222,99999999' 
WAVCIS,ioos:station:WAVCIS:CSI15:1,2010-12-08T01:00:00Z,28.8332,-90.8320,10.0,2.517,54.0,,'11111222,11111222,99999999' 
WAVCIS,ioos:station:WAVCIS:CSI15:1,2010-12-08T02:00:00Z,28.8332,-90.8320,10.0,2.172,78.0,,'11111222,11111222,99999999' 
WAVCIS,ioos:station:WAVCIS:CSI15:1,2010-12-08T03:00:00Z,28.8332,-90.8320,10.0,3.222,77.0,,'11111222,11111222,99999999' 
WAVCIS,ioos:station:WAVCIS:CSI15:1,2010-12-08T04:00:00Z,28.8332,-90.8320,10.0,3.479,76.0,,'11111222,11111222,99999999' 
WAVCIS,ioos:station:WAVCIS:CSI15:1,2010-12-08T05:00:00Z,28.8332,-90.8320,10.0,3.056,66.0,,'11111222,11111222,99999999' 
WAVCIS,ioos:station:WAVCIS:CSI15:1,2010-12-08T06:00:00Z,28.8332,-90.8320,10.0,4.18,31.0,,'11111222,11111222,99999999' 
WAVCIS,ioos:station:WAVCIS:CSI15:1,2010-12-08T07:00:00Z,28.8332,-90.8320,10.0,6.844,32.0,,'11111222,11111222,99999999' 
WAVCIS,ioos:station:WAVCIS:CSI15:1,2010-12-08T08:00:00Z,28.8332,-90.8320,10.0,6.353,48.0,,'11111222,11111222,99999999' 
WAVCIS,ioos:station:WAVCIS:CSI15:1,2010-12-08T09:00:00Z,28.8332,-90.8320,10.0,6.501,83.0,,'11111222,11111222,99999999' 
WAVCIS,ioos:station:WAVCIS:CSI15:1,2010-12-08T10:00:00Z,28.8332,-90.8320,10.0,7.09,68.0,,'11111222,11111222,99999999' 
WAVCIS,ioos:station:WAVCIS:CSI15:1,2010-12-08T11:00:00Z,28.8332,-90.8320,10.0,13.09,349.0,,'11111222,11111222,99999999' 
WAVCIS,ioos:station:WAVCIS:CSI15:1,2010-12-08T12:00:00Z,28.8332,-90.8320,10.0,15.41,344.0,,'11111222,11111222,99999999' 
WAVCIS,ioos:station:WAVCIS:CSI15:1,2010-12-08T13:00:00Z,28.8332,-90.8320,10.0,13.77,347.0,,'11111222,11111222,99999999' 
WAVCIS,ioos:station:WAVCIS:CSI15:1,2010-12-08T14:00:00Z,28.8332,-90.8320,10.0,11.33,13.0,,'11111222,11111222,99999999' 
WAVCIS,ioos:station:WAVCIS:CSI15:1,2010-12-08T15:00:00Z,28.8332,-90.8320,10.0,10.48,27.0,,'11111222,11111222,99999999' 
WAVCIS,ioos:station:WAVCIS:CSI15:1,2010-12-08T16:00:00Z,28.8332,-90.8320,10.0,10.25,21.0,,'11111222,11111222,99999999' 
WAVCIS,ioos:station:WAVCIS:CSI15:1,2010-12-08T17:00:00Z,28.8332,-90.8320,10.0,9.92,26.0,,'11111222,11111222,99999999' 
WAVCIS,ioos:station:WAVCIS:CSI15:1,2010-12-08T18:00:00Z,28.8332,-90.8320,10.0,9.57,16.0,,'11111222,11111222,99999999' 
WAVCIS,ioos:station:WAVCIS:CSI15:1,2010-12-08T19:00:00Z,28.8332,-90.8320,10.0,9.92,6.0,,'11111222,11111222,99999999' 
WAVCIS,ioos:station:WAVCIS:CSI15:1,2010-12-08T20:00:00Z,28.8332,-90.8320,10.0,9.84,4.0,,'11111222,11111222,99999999' 
WAVCIS,ioos:station:WAVCIS:CSI15:1,2010-12-08T21:00:00Z,28.8332,-90.8320,10.0,9.64,358.0,,'11111222,11111222,99999999' 
WAVCIS,ioos:station:WAVCIS:CSI15:1,2010-12-08T22:00:00Z,28.8332,-90.8320,10.0,9.91,358.0,,'11111222,11111222,99999999' 
WAVCIS,ioos:station:WAVCIS:CSI15:1,2010-12-08T23:00:00Z,28.8332,-90.8320,10.0,10.06,357.0,,'11111222,11111222,99999999' 
WAVCIS,ioos:station:WAVCIS:CSI15:1,2010-12-09T00:00:00Z,28.8332,-90.8320,10.0,9.58,359.0,,'11111222,11111222,99999999' 
WAVCIS,ioos:station:WAVCIS:CSI15:1,2010-12-09T01:00:00Z,28.8332,-90.8320,10.0,11.37,353.0,,'11111222,11111222,99999999' 
WAVCIS,ioos:station:WAVCIS:CSI15:1,2010-12-09T02:00:00Z,28.8332,-90.8320,10.0,11.11,351.0,,'11111222,11111222,99999999' 
WAVCIS,ioos:station:WAVCIS:CSI15:1,2010-12-09T03:00:00Z,28.8332,-90.8320,10.0,10.31,350.0,,'11111222,11111222,99999999' 
WAVCIS,ioos:station:WAVCIS:CSI15:1,2010-12-09T04:00:00Z,28.8332,-90.8320,10.0,11.94,353.0,,'11111222,11111222,99999999' 
WAVCIS,ioos:station:WAVCIS:CSI15:1,2010-12-09T05:00:00Z,28.8332,-90.8320,10.0,11.52,357.0,,'11111222,11111222,99999999' 